STARLINK-33973

Satellite information

Favourite Embed

Satellite Type and Status

PAYLOADIN ORBIT

Key statistics

Satellite STARLINK-33973 at a glance.

Uptime

217

Days in orbit

Revolutions

≈ 15.3

Per day

Orbit

LEO

Low Earth Orbit

Inclination

43.0

Latest

Satellite identification and parameters

Extended collection of information and parameters for STARLINK-33973.

Object identification

Identified? True

Debris? False

Object name: STARLINK-33973

International designator: 2025-095E

Object number (NORAD): 63894

Object ID (CCSDS): 63894

Country: UNITED STATES OF AMERICA (US)

Current information (Y/N): Y

RCS size: LARGE

Orbital parameters

Period: 94.267 minutes

Inclination: 43.0031 deg

SMA: 6861.188 km

Apoapsis: 484.489 km

Periapsis: 481.617 km

RAAN: 309.4759 deg

Eccentricy: 0.00020932

Argument of periapsis: 266.2249 deg

Mean anomaly: 93.8363 deg

Mean motion: 15.27579458 rev/day

Mean motion (dot): 0.00045225 rev/day2

B* drag term: 0.0016429096 1/REarth

Two-line elements (TLE)

Creation date: Dec. 12, 2025, 10:14 a.m.

Reference frame: TEME

Reference center: EARTH

Epoch: Dec. 12, 2025, 6:35 a.m. UTC

TLE line 0: 0 STARLINK-33973

TLE line 1: 1 63894U 25095E 25346.27487773 .00045225 00000-0 16429-2 0 9998

TLE line 2: 2 63894 43.0031 309.4759 0002093 266.2249 93.8363 15.27579458 34423

Live tracking on map

Real-time ground track for satellite STARLINK-33973.

In-orbit conjunctions

There are no conjunctions computed for STARLINK-33973, at the moment. Check back to stay up to date, as we update our databases every day.

Go to all conjunctions

Associated space launch

A batch of 28 satellites for the Starlink mega-constellation - SpaceX's project for space-based Internet communication system.

STARLINK-33973 was lifted into orbit during the mission ‘Falcon 9 Block 5 | Starlink Group 6-91’, on board a Falcon 9 space rocket.

The launch took place on May 10, 2025, 6:28 a.m. from Space Launch Complex 40.

For more information about the launch, click the button.

Launch to space Falcon 9 Block 5 | Starlink Group 6-91
Falcon 9 Block 5 | Starlink Group 6-91

Agency: SpaceX

Status: Launch Successful

Launch date: May 10, 2025, 6:28 a.m. UTC

Rocket: Falcon 9

Launch pad: Space Launch Complex 40

Location: Cape Canaveral SFS, FL, USA

...

Latest news about this satellite

News about space launch
Live coverage: SpaceX to launch 28 Starlink satellites on Falcon 9 rocket from Cape Canaveral

The Starlink 6-91 mission includes the 900th Starlink V2 Mini satellite launched in 2025. Liftoff from pad 40 at Cape Canaveral Space Force Station is targeted for Saturday, May 10 at 2:28 am EDT (0628 UTC).

News about space launch
Launch Roundup: SpaceX to launch 250th mission from SLC-40

SpaceX is on course to launch its 250th mission from SLC-40 in Florida this week.… The post Launch Roundup: SpaceX to launch 250th mission from SLC-40 appeared first on NASASpaceFlight.com.


Newsletter sign-up

Weekly statistics, charts and insights to help you stay on top of the space industry.